OBJECT AK, 61768

Orbit data source: Space-Track

You're viewing an Uncataloged Satellite

Recently launched and/or uncataloged satellites may have evolving metadata. Metadata may include but not limited to: Owner, Maufacturer, Bus, Motor, and Mission.

OBJECT AK, 61768 is a satellite in SSO that was launched on Mon, 04 Nov 2024 UTC launched from the Vostochny Cosmodrome (VOSTO). Unknown objects in Earth's orbit typically refer to objects detected orbiting the Earth but have not yet been identified or cataloged. These objects could be anything from previously untracked satellites, spent rocket stages, debris from satellite collisions, or even natural meteoroids temporarily captured by Earth's gravity.

Not visible in the next 10 days
Identifier
61768, 2024-199AK
Orbit
SSO
Country
Flag of TBDTBD
Related business
Manufacturer
Lavochkin
Mission
Operational spacecraft
Bus & Motor
Unknown
Mass
Unknown
Launch date (UTC)
2024-11-04 (2 years ago)
Launch vehicle
Unknown
Launch site
Vostochny Cosmodrome (VOSTO)
Object type
Unknown
Shape & HBR
Unknown shape, 0.1 m
Radar Cross Section
Small (<0.1 m²)

Expand to show TLE details & history
Last TLE update: 8 hours ago

TLE from 8 hours ago
0 OBJECT AK
1 61768U 24199AK  26127.90006326  .00017604  00000-0  33822-3 0  9996
2 61768  97.3017   2.2796 0007568  81.8468 278.3641 15.47978657128106
Epoch: 2026-05-07T21:36Z
TLE epoch observation values (Epoch: 2026-05-07T21:36:05.465Z)
Latitude
-0.00001°
Longitude
172.51726°
Altitude
425.026 km
Speed
7.657 km/s
True Right ascension
00h 09m 07s
True Declination
0° 00' 00"
Sunlit
Object was in daylight at epoch
Visualization orbit readout
Latitude
Unknown
Longitude
Unknown
Altitude
Unknown
Speed
Unknown
Apparent Right ascension
Unknown
Apparent Declination
Unknown
Sunlit
N/A
Visualization observer readout
Local Sidereal Time
13:37:25
Azimuth
Unknown
Elevation
Unknown
Doppler factor
Unknown
Orbital elements
Apogee altitude
424.709 km
Perigee altitude
414.42 km
Semi-major axis
6,797.701 km
Eccentricity
0.00076
Inclination
97.3017°
RAAN
2.2796°
Arg. of periapsis
81.8468°
True anomaly
278.27829°
Mean anomaly
278.3641°
Eccentric anomaly
278.3212°
Mean motion
3.87258 °/min
Orbital period
92.96 mins
BSTAR
0.00033822
Loading maneuver chart data...
Computing Atmospheric mass density...
Loading historical data...
Loading historical data...
Loading historical data...
Loading historical data...
Loading historical data...
Loading historical data...
Loading historical data...

Documentation

Showing up to 5 results
|